Tiempo cada hora Alisovo

Hoy, 28 Julio, Miércoles

Tiempo Temperatura Precipitaciones Viento Presión Humedad
00:00 +19°C° 0 mm 1 mps 734 mmHg 51%
01:00 +18°C° 0 mm 1 mps 734 mmHg 53%
02:00 +17°C° 0 mm 2 mps 734 mmHg 54%
03:00 +17°C° 0 mm 2 mps 734 mmHg 56%
04:00 +16°C° 0 mm 2 mps 734 mmHg 62%
05:00 +17°C° 0 mm 2 mps 734 mmHg 62%
06:00 +18°C° 0 mm 2 mps 734 mmHg 62%
07:00 +19°C° 0 mm 2 mps 734 mmHg 63%
08:00 +21°C° 0 mm 3 mps 734 mmHg 55%
09:00 +22°C° 0 mm 4 mps 734 mmHg 46%
10:00 +25°C° 0 mm 5 mps 734 mmHg 38%
11:00 +25°C° 0 mm 5 mps 734 mmHg 36%
12:00 +26°C° 0 mm 6 mps 734 mmHg 33%
13:00 +27°C° 0 mm 6 mps 734 mmHg 30%
14:00 +27°C° 0 mm 6 mps 734 mmHg 29%
15:00 +27°C° 0 mm 6 mps 734 mmHg 28%
16:00 +27°C° 0 mm 6 mps 734 mmHg 28%
17:00 +26°C° 0 mm 5 mps 734 mmHg 28%
18:00 +25°C° 0 mm 5 mps 734 mmHg 29%
19:00 +23°C° 0 mm 5 mps 734 mmHg 30%
20:00 +21°C° 0 mm 4 mps 734 mmHg 34%
21:00 +19°C° 0 mm 3 mps 734 mmHg 37%
22:00 +17°C° 0 mm 2 mps 734 mmHg 40%
23:00 +16°C° 0 mm 2 mps 734 mmHg 42%

Mañana, 29 Julio, Jueves

Tiempo Temperatura Precipitaciones Viento Presión Humedad
00:00 +15°C° 0 mm 2 mps 734 mmHg 44%
01:00 +14°C° 0 mm 2 mps 734 mmHg 45%
02:00 +14°C° 0 mm 1 mps 735 mmHg 46%
03:00 +14°C° 0 mm 1 mps 735 mmHg 48%
04:00 +13°C° 0 mm 1 mps 735 mmHg 49%
05:00 +15°C° 0 mm 1 mps 735 mmHg 45%
06:00 +16°C° 0 mm 1 mps 735 mmHg 42%
07:00 +19°C° 0 mm 1 mps 735 mmHg 38%
08:00 +21°C° 0 mm 1 mps 735 mmHg 35%
09:00 +23°C° 0 mm 2 mps 735 mmHg 31%
10:00 +25°C° 0 mm 2 mps 735 mmHg 27%
11:00 +26°C° 0 mm 3 mps 735 mmHg 25%
12:00 +27°C° 0 mm 3 mps 735 mmHg 22%
13:00 +28°C° 0 mm 4 mps 734 mmHg 20%
14:00 +28°C° 0 mm 4 mps 734 mmHg 20%
15:00 +29°C° 0 mm 4 mps 734 mmHg 20%
16:00 +29°C° 0 mm 4 mps 734 mmHg 20%
17:00 +28°C° 0 mm 3 mps 733 mmHg 22%
18:00 +28°C° 0 mm 2 mps 733 mmHg 25%
19:00 +27°C° 0 mm 2 mps 732 mmHg 27%
20:00 +25°C° 0 mm 3 mps 733 mmHg 33%
21:00 +23°C° 0 mm 4 mps 733 mmHg 38%
22:00 +21°C° 0 mm 6 mps 733 mmHg 44%
23:00 +20°C° 0.1 mm 5 mps 732 mmHg 56%

Pasado mañana, 30 Julio, Viernes

Tiempo Temperatura Precipitaciones Viento Presión Humedad
00:00 +19°C° 0.1 mm 4 mps 732 mmHg 68%
01:00 +18°C° 0.1 mm 3 mps 732 mmHg 79%
02:00 +19°C° 0 mm 4 mps 731 mmHg 69%
03:00 +19°C° 0 mm 5 mps 730 mmHg 58%
04:00 +20°C° 0 mm 6 mps 730 mmHg 48%
05:00 +21°C° 0 mm 7 mps 730 mmHg 43%
06:00 +23°C° 0 mm 7 mps 730 mmHg 38%
07:00 +24°C° 0 mm 8 mps 730 mmHg 34%
08:00 +27°C° 0 mm 8 mps 730 mmHg 36%
09:00 +28°C° 0 mm 7 mps 730 mmHg 39%
10:00 +29°C° 0 mm 7 mps 730 mmHg 42%
11:00 +31°C° 0 mm 8 mps 730 mmHg 39%
12:00 +32°C° 0 mm 8 mps 730 mmHg 36%
13:00 +33°C° 0 mm 8 mps 730 mmHg 33%
14:00 +33°C° 0 mm 8 mps 730 mmHg 33%
15:00 +33°C° 0 mm 8 mps 730 mmHg 32%
16:00 +33°C° 0 mm 8 mps 730 mmHg 32%
17:00 +32°C° 0 mm 7 mps 730 mmHg 35%
18:00 +30°C° 0 mm 6 mps 730 mmHg 39%
19:00 +28°C° 0 mm 5 mps 731 mmHg 42%
20:00 +26°C° 0 mm 4 mps 731 mmHg 50%
21:00 +24°C° 0 mm 3 mps 731 mmHg 59%
22:00 +21°C° 0 mm 2 mps 731 mmHg 68%
23:00 +20°C° 0 mm 2 mps 731 mmHg 70%

31 Julio, Sábado

Tiempo Temperatura Precipitaciones Viento Presión Humedad
00:00 +21°C° 0 mm 1 mps 731 mmHg 72%
01:00 +20°C° 0 mm 1 mps 731 mmHg 73%
02:00 +20°C° 0 mm 1 mps 731 mmHg 74%
03:00 +20°C° 0 mm 1 mps 731 mmHg 75%
04:00 +20°C° 0 mm 1 mps 731 mmHg 75%
05:00 +20°C° 0 mm 2 mps 731 mmHg 70%
06:00 +23°C° 0 mm 2 mps 732 mmHg 64%
07:00 +24°C° 0 mm 2 mps 732 mmHg 58%
08:00 +26°C° 0 mm 3 mps 732 mmHg 51%
09:00 +29°C° 0 mm 4 mps 732 mmHg 44%
10:00 +32°C° 0 mm 4 mps 732 mmHg 36%
11:00 +29°C° 0 mm 4 mps 732 mmHg 42%
12:00 +28°C° 0 mm 3 mps 731 mmHg 47%
13:00 +27°C° 0 mm 3 mps 731 mmHg 52%
14:00 +28°C° 0.1 mm 3 mps 731 mmHg 48%
15:00 +30°C° 0.1 mm 4 mps 730 mmHg 43%
16:00 +33°C° 0.1 mm 5 mps 730 mmHg 39%
17:00 +32°C° 0.1 mm 4 mps 730 mmHg 42%
18:00 +30°C° 0.1 mm 4 mps 730 mmHg 45%
19:00 +29°C° 0.1 mm 4 mps 730 mmHg 48%
20:00 +27°C° 0.1 mm 4 mps 730 mmHg 54%
21:00 +25°C° 0.1 mm 3 mps 730 mmHg 59%
22:00 +24°C° 0.1 mm 3 mps 730 mmHg 65%
23:00 +24°C° 0.1 mm 3 mps 730 mmHg 66%

1 Agosto, Domingo

Tiempo Temperatura Precipitaciones Viento Presión Humedad
00:00 +22°C° 0.1 mm 3 mps 731 mmHg 68%
01:00 +22°C° 0.1 mm 3 mps 731 mmHg 69%
02:00 +22°C° 0.2 mm 3 mps 731 mmHg 70%
03:00 +21°C° 0.2 mm 3 mps 731 mmHg 72%
04:00 +21°C° 0.2 mm 3 mps 731 mmHg 73%
05:00 +22°C° 0 mm 3 mps 731 mmHg 69%
06:00 +24°C° 0 mm 3 mps 732 mmHg 65%
07:00 +25°C° 0 mm 3 mps 732 mmHg 61%
08:00 +27°C° 0 mm 3 mps 732 mmHg 54%
09:00 +29°C° 0 mm 3 mps 733 mmHg 46%
10:00 +32°C° 0 mm 4 mps 733 mmHg 38%
11:00 +32°C° 0 mm 4 mps 733 mmHg 34%
12:00 +33°C° 0 mm 4 mps 733 mmHg 31%
13:00 +34°C° 0 mm 3 mps 733 mmHg 27%
14:00 +34°C° 0 mm 3 mps 733 mmHg 26%
15:00 +35°C° 0 mm 3 mps 733 mmHg 25%
16:00 +35°C° 0 mm 2 mps 733 mmHg 24%
17:00 +34°C° 0 mm 2 mps 733 mmHg 26%
18:00 +32°C° 0 mm 2 mps 733 mmHg 28%
19:00 +31°C° 0 mm 2 mps 733 mmHg 30%
20:00 +30°C° 0 mm 1 mps 733 mmHg 32%
21:00 +28°C° 0 mm 1 mps 733 mmHg 35%
22:00 +26°C° 0 mm 1 mps 733 mmHg 37%
23:00 +26°C° 0 mm 1 mps 733 mmHg 39%

2 Agosto, Lunes

Tiempo Temperatura Precipitaciones Viento Presión Humedad
00:00 +25°C° 0 mm 1 mps 733 mmHg 41%
01:00 +24°C° 0 mm 1 mps 734 mmHg 42%
02:00 +24°C° 0 mm 1 mps 734 mmHg 43%
03:00 +23°C° 0 mm 1 mps 734 mmHg 44%
04:00 +23°C° 0 mm 2 mps 734 mmHg 44%
05:00 +24°C° 0 mm 2 mps 734 mmHg 42%
06:00 +25°C° 0 mm 2 mps 734 mmHg 40%
07:00 +27°C° 0 mm 2 mps 735 mmHg 38%
08:00 +29°C° 0 mm 2 mps 735 mmHg 35%
09:00 +31°C° 0 mm 2 mps 735 mmHg 31%
10:00 +34°C° 0 mm 2 mps 735 mmHg 27%
11:00 +35°C° 0 mm 2 mps 735 mmHg 25%
12:00 +36°C° 0 mm 2 mps 735 mmHg 23%
13:00 +37°C° 0 mm 2 mps 735 mmHg 20%
14:00 +37°C° 0 mm 2 mps 734 mmHg 20%
15:00 +38°C° 0 mm 2 mps 734 mmHg 20%
16:00 +38°C° 0 mm 2 mps 734 mmHg 20%
17:00 +36°C° 0 mm 1 mps 734 mmHg 22%
18:00 +35°C° 0 mm 1 mps 734 mmHg 23%
19:00 +34°C° 0 mm 1 mps 734 mmHg 25%
20:00 +33°C° 0 mm 1 mps 734 mmHg 27%
21:00 +32°C° 0 mm 1 mps 734 mmHg 29%
22:00 +30°C° 0 mm 1 mps 734 mmHg 30%
23:00 +30°C° 0 mm 1 mps 734 mmHg 32%
Mostrar más

Necesitamos Su Consentimiento

Meteoprog y nuestros Proveedores de Servicios pueden almacenar y acceder a sus datos personales como cookies, identificadores de dispositivo u otras tecnologías similares de su dispositivo y procesar dichos datos para personalizar contenido y anuncios, además de ofrecer funciones de redes sociales y analizar el tráfico.

  • Almacenar y/o acceder a información en su dispositivo

    Se puede almacenar o acceder a cookies, identificadores de dispositivo u otra información de su dispositivo para los fines anteriormente indicados.

  • Anuncios y contenido personalizados, medición de anuncios y contenido, percepciones del público, y desarrollo de productos

    Los anuncios y el contenido pueden personalizarse en base a su perfil. Se pueden añadir más datos para personalizar mejor los anuncios y contenidos. Se puede medir el rendimiento de los anuncios y contenidos. Se puede obtener la percepción sobre el público que ha visto los anuncios y contenidos. Dichos datos pueden usarse para desarrollar o mejorar la experiencia del usuario, sistemas y software.

Al hacer clic en ‘Estoy De Acuerdo’ usted permitirá el uso de las cookies, identificadores de dispositivo, balizas web u otras tecnologías similares indicadas. Su configuración puede cambiarse desde el navegador de su dispositivo.

Para ciertos fines, los intereses legítimos pueden ser considerados por encima del consentimiento. Puede leer más sobre ello en nuestra Política de Privacidad y Cookies.